Погода в Кокино

Россия / Брянская область     53°09′17″N   34°07′22″E
темп.,
°C
ветер,
м/с
пор.,
м/с
влажн.,
%
обл.,
%
осадки,
мм/ч
давл.,
гПа
погр.,
м
8 марта, пн
пн800:00−5зюз5138797 0.0 1003313
03:00−5зюз6139357 0.0 1003363
06:00−7з5129580 0.0 1003335
09:00−6з5119474 0.0 1004477
12:00−4зсз578596 0.1 1006815
15:00−2зсз468198 0.4 1007953
18:00−5сз4883100 0.4 1008390
21:00−9сз349485 0.4 101179
9 марта, вт
вт900:00−10сз359595 0.0 1012117
03:00−11ссз469794 0.0 1014137
06:00−13ссз349778 0.1 101681
09:00−12ссз469579 0.1 1018245
12:00−9сз468779 0.0 1019567
15:00−8сз577963 0.0 1020831
18:00−10сз368982 0.0 1021144
21:00−12сз349488 0.1 102360
10 марта, ср
ср1000:00−14сз33950 0.0 102531
03:00−15сз22940 0.0 102621
06:00−15з1293100 0.0 102721
09:00−12юз229598 0.1 1027113
12:00−8ююз349396 0.6 1027366
15:00−5ююз129498 1.6 1027256
18:00−9в71095100 1.5 1027449
21:00−12в479598 1.9 1029263
11 марта, чт
чт1100:00−15в479486 0.1 1031236
03:00−19в348773 0.1 103386
06:00−20вюв3488100 0.0 103382
09:00−19вюв368499 0.0 1034216
12:00−13юв357617 0.0 1033327
15:00−10юв35738 0.0 1032470
18:00−13юв34860 0.0 103176
21:00−16юв36920 0.0 103292
12 марта, пт
пт1200:00−17юв36960 0.0 103192
03:00−17ююв479535 0.0 1030139
06:00−16ююв49911 0.0 1029191
09:00−11ююв6138518 0.0 1027370
12:00−6ююв71382100 0.0 1025636
15:00−4ю81480100 0.0 1024971
18:00−5ю81680100 0.0 1022911
21:00−6ю101892100 0.5 1021949